Flag for U.S.A. Weather past 2 weeks in Brownsville, Texas, U.S.A.

Now
77 °F

Light rain. Cloudy.


Feels Like: 78 °F
Forecast: 78 / 93 °F
Wind: 8 mph from Northeast

Location: Brownsville / South Padre Island International Airport

Current Time: Aug 29, 2014 at 12:00:44 PM

Latest Report: Aug 29, 2014 at 11:02 AM


Visibility: 10 mi

Pressure: 29.84 "Hg

Humidity: 94%

Dew point: 75 °F

Location of BrownsvilleLocation

Historic Weather in Brownsville — Graph

°F

Brownsville temperature yesterday

Maximum temperature yesterday: 94 °F (at 2:53 PM)
Minimum temperature yesterday: 80 °F (at 2:53 AM)
Average temperature yesterday: 85 °F

Past Weeks' High & Low Weather Summary

 TemperatureHumidityPressure
High99 °F (Aug 15, 2:53 PM)100% (Aug 26, 4:53 AM)30.06 "Hg (Aug 26, 4:53 AM)
Low75 °F (Aug 19, 2:53 AM)36% (Aug 26, 1:53 PM)29.74 "Hg (Aug 28, 3:53 PM)
Average86 °F73%29.92 "Hg
* Reported Aug 14 10:53 AM — Aug 29 10:53 AM, Brownsville, Weather by CustomWeather, © 2014

Note: Actual official high and low records may vary slightly from our data, if they occured in-between our weather recording intervals... More about our weather records

Advertising

Brownsville weather history for previous 24 hours

 ConditionsComfort  
Time TempWeatherWind HumidityBarometerVisibility
10:53 AM
Aug 29
77 °FRain. Mostly cloudy.9 mph96%29.84 "Hg10 mi
9:53 AM82 °FScattered clouds.7 mph94%29.82 "Hg10 mi
8:53 AM83 °FLight rain. Scattered clouds.6 mph91%29.81 "Hg10 mi
7:53 AM82 °FMostly cloudy.6 mph91%29.79 "Hg10 mi
6:53 AM82 °FOvercast.9 mph91%29.76 "Hg10 mi
5:53 AM83 °FOvercast.7 mph88%29.77 "Hg10 mi
4:53 AM82 °FPartly cloudy.8 mph91%29.76 "Hg10 mi
3:53 AM82 °FClear.8 mph88%29.77 "Hg10 mi
2:53 AM81 °FClear.10 mph82%29.79 "Hg10 mi
1:53 AM82 °FClear.7 mph88%29.81 "Hg10 mi
12:53 AM82 °FPassing clouds.8 mph88%29.82 "Hg10 mi
11:53 PM
Aug 28
83 °FPassing clouds.6 mph88%29.82 "Hg10 mi
10:53 PM83 °FClear.7 mph85%29.81 "Hg10 mi
9:53 PM83 °FPassing clouds.8 mph82%29.79 "Hg10 mi
8:53 PM84 °FPassing clouds.9 mph80%29.79 "Hg10 mi
7:53 PM85 °FSunny.9 mph72%29.77 "Hg10 mi
6:53 PM87 °FBroken clouds.7 mph72%29.75 "Hg10 mi
5:53 PM93 °FPassing clouds.7 mph56%29.76 "Hg10 mi
4:53 PM93 °FBroken clouds.8 mph54%29.75 "Hg10 mi
3:53 PM94 °FScattered clouds.8 mph56%29.74 "Hg10 mi
2:53 PM94 °FBroken clouds.9 mph51%29.78 "Hg10 mi
1:53 PM91 °FBroken clouds.8 mph64%29.79 "Hg10 mi
12:53 PM91 °FLight rain. Mostly cloudy.10 mph61%29.81 "Hg10 mi
Weather by CustomWeather, © 2014

See weather overviewHow to use our weather pages